www.pogodaiklimat.ru

Погода и климат >> Архив погоды >> Корея >> Хыксандо


ПОГОДА в Хыксандо

  • Прогноз погоды в Хыксандо
  • Монитор погоды в Хыксандо

АРХИВ ПОГОДЫ в Хыксандо

Время (UTC), дата Ветер
(напр.,м/с)
 
Видим.   Явления Облачность Т
(С)
Тd
(С)
f
(%)
Тe
(С)
Тes
(С)
Комфортность P
(гПа)
Po
(гПа)
Тmin
(С)
Tmax
(С)
R
(мм)
R24
(мм)
S
(см)
03 10.06 19 км н/о +19.9 +15.3 75 +22 +23 комфорт 1006.4 997.5
06 10.06 Ю 5 20 км 8/8 1500 м
[Sc]
+19.5 +14.7 74 +21 +23 комфорт 1006.1 997.3
09 10.06 20 км н/о +17.9 +14.3 79 +17 +17 1005.4 996.5
12 10.06 Ю 8 20 км 9/9 1500 м
[Sc]
+17.0 +13.8 81 +16 +16 1007.4 998.5 +22.4
15 10.06 Ю 4 20 км 10/6 1500 м
[Sc As op]
+16.8 +14.2 85 +16 +16 1007.9 999.0
18 10.06 Ю 4 20 км 10/6 1000 м
[Sc As op]
+16.7 +13.7 82 +16 +16 1007.5 998.6
21 10.06 Ю 1 19 км 8/5 1500 м
[Sc Ac trans]
+16.4 +14.4 88 +17 +17 1008.4 999.4
00 11.06 Ю 5 18 км 8/8 1500 м
[Sc]
+18.8 +16.0 84 +20 +21 1009.5 1000.6 +16.2
03 11.06 19 км н/о +22.1 +16.1 69 +26 +35 душно 1009.4 1000.6
06 11.06 Ю 3 20 км ясно +22.1 +15.2 65 +26 +39 душно 1009.3 1000.5
09 11.06 С 2 19 км ясно +18.7 +15.7 83 +20 +23 1008.4 999.6
12 11.06 З 1 20 км ясно +17.5 +14.9 85 +19 +19 1009.6 1000.7 +23.1
15 11.06 З 1 19 км ясно +17.2 +15.0 87 +18 +18 1010.9 1002.0
18 11.06 штиль 0 15 км ясно +16.6 +15.7 94 +16 +16 1010.3 1001.3
21 11.06 5000 м дымка н/о +16.4 +16.0 97 +16 +16 1011.2 1002.2
00 12.06 С 3 19 км ясно +21.7 +17.4 77 +26 +34 душно 1011.4 1002.6 +15.4
03 12.06 18 км н/о +22.2 +17.5 75 +27 +37 душно 1011.7 1002.9
06 12.06 С 3 20 км 3/1 1000 м
[Sc Ci fib]
+22.3 +17.6 75 +27 +38 душно 1010.9 1002.1
09 12.06 СЗ 2 19 км 4/0
[Ci fib]
+19.5 +16.3 82 +22 +25 комфорт 1009.9 1001.1
12 12.06 Ю 4 13 км ясно +16.6 +15.2 91 +16 +16 1011.1 1002.1 +23.0
15 12.06 С 3 18 км ясно +17.1 +15.2 89 +17 +17 1011.4 1002.4
18 12.06 В 2 11 км ясно +17.2 +16.2 94 +18 +18 1010.5 1001.6
21 12.06 Ю 2 6000 м дымка ясно +16.4 +15.9 97 +16 +17 1010.8 1001.8
00 13.06 Ю 5 19 км 3/0
[Ci fib]
+20.7 +17.3 81 +24 +29 комфорт 1011.4 1002.5 +16.2
03 13.06 Ю 6 16 км 9/0
[Ci fib]
+22.1 +17.4 75 +27 +34 душно 1010.5 1001.7
06 13.06 Ю 6 20 км 9/0
[Ci sp]
+20.4 +16.4 78 +23 +28 комфорт 1009.4 1000.5
09 13.06 Ю 5 9000 м дымка 9/0
[Ci sp]
+18.8 +15.8 83 +20 +21 1008.5 999.7
12 13.06 Ю 4 11 км 9/0
[Ci fib]
+17.3 +15.6 90 +17 +17 1009.7 1000.8 +23.1
15 13.06 Ю 2 7000 м дымка 9/0
[Ci fib]
+16.6 +15.2 91 +17 +17 1009.2 1000.2
18 13.06 С 4 7000 м дымка 10/0
[As op]
+17.3 +16.6 96 +17 +17 1006.9 998.0
21 13.06 С 2 5000 м слаб. дождь 10/9 600 м
[Frnb As op]
+17.6 +17.1 97 +18 +18 1006.6 997.7
00 14.06 С 4 1600 м слаб. дождь 10/6 100 м
[Frnb As op]
+18.1 +17.7 98 +18 +19 1006.6 997.7 +16.4 2
03 14.06 СВ 1 8000 м слаб. дождь 10/9 200 м
[Frnb As op]
+19.8 +18.9 95 +24 +24 комфорт 1006.3 997.5
06 14.06 С 4 13 км 9/0
[Ac trans Ci fib]
+21.3 +18.6 85 +26 +33 душно 1004.6 995.8
09 14.06 С 3 12 км 9// 1500 м
[Sc]
+19.2 +16.9 87 +21 +22 комфорт 1003.5 994.7
12 14.06 С 8 15 км 8/0
[Ci fib]
+17.6 +16.2 91 +17 +17 1003.8 994.9 +21.8 1
15 14.06 С 10 6000 м дымка 5/0
[Ci fib]
+17.7 +17.2 97 +16 +16 1003.9 995.0
18 14.06 СЗ 5 4800 м дымка ясно +17.5 +17.0 97 +17 +17 1002.3 993.4
21 14.06 СЗ 5 11 км 3/0
[Ci fib]
+17.4 +16.7 96 +17 +17 1003.3 994.4
00 15.06 С 9 16 км 3/3 1500 м
[Sc]
+20.9 +18.0 83 +24 +25 комфорт 1003.9 995.1 +16.9 0.0
03 15.06 13 км н/о +22.7 +19.2 81 +29 +36 очень
душно
1002.7 994.0
06 15.06 С 3 15 км 3/3 300 м
[Sc]
+22.3 +18.8 81 +28 +37 душно 1001.7 993.0
09 15.06 8000 м дымка н/о +19.7 +17.6 88 +22 +23 комфорт 1001.7 993.0
12 15.06 СЗ 9 10 км ясно +17.8 +16.6 93 +17 +17 1003.5 994.6 +23.2
15 15.06 СЗ 6 17 км ясно +18.6 +15.4 82 +19 +19 1004.5 995.7
18 15.06 СЗ 5 16 км ясно +17.7 +15.6 88 +17 +17 1004.6 995.7
21 15.06 СЗ 5 15 км 3/0
[Ci fib]
+18.0 +16.3 90 +18 +18 1005.8 996.9
00 16.06 С 7 18 км 3/0
[Ci fib]
+21.7 +17.8 78 +26 +29 душно 1007.7 998.9 +17.3
03 16.06 СЗ 3 19 км 8/0
[Ci fib]
+22.0 +17.7 77 +27 +41 душно 1008.5 999.7
06 16.06 С 4 19 км 8/0
[Ci fib]
+22.0 +17.9 78 +27 +36 душно 1009.0 1000.2
09 16.06 СЗ 3 19 км 8/0
[Ci fib]
+20.8 +17.4 81 +25 +27 комфорт 1009.6 1000.8
12 16.06 СЗ 5 11 км 8/0
[Ci fib]
+17.3 +16.4 94 +17 +17 1010.8 1001.9 +23.0
15 16.06 ЮЗ 1 12 км 8/0
[Ci fib]
+17.4 +16.5 94 +18 +18 1011.8 1002.9
18 16.06 Ю 1 13 км 9/0
[Ac trans]
+17.2 +16.3 94 +18 +18 1011.7 1002.7
21 16.06 Ю 1 13 км 8/0
[Ci fib]
+16.9 +16.2 96 +18 +18 1012.9 1003.9

 

Местоположение метеостанции Хыксандо (Корея): широта 34.68 долгота 125.45 высота над уровнем моря 83 м.

В архиве по умолчанию представлена погода в Хыксандо за последнюю неделю. Архивные данные за месяц целиком и за предыдущие месяцы, начиная с января 2011 года, Вы можете получить, выбрав интересующий диапазон дат из раскрывающегося списка и нажав кнопку "Ввод!".


*Определитесь, кто Вы:
робот инопланетянин человек

Внимание! Время в таблицах - всемирное. Для получения местного времени необходимо прибавить поправку, которая равна 9 ч.

Смотрите также архив погоды в соседних городах и на ближайших метеорологических станциях:

Погода на Радаре Jindo (Корея) (84 км)
Погода в Мокпхо (Корея) (86 км)
Погода в Уондо (Корея) (119 км)
Погода в Кочхане (Корея) (141 км)
Погода в Кванджу (Корея) (143 км)
Погода в Чоныпе (Корея) (161 км)
Погода на Чеджудо (Корея) (163 км)
Погода в Сунчхоне (Корея) (168 км)
Погода на Ёнпхёндо (Корея) (181 км)
Погода в Кунсане (Корея) (189 км)

Пояснения к столбцам:

Ветер - указаны скорость ветра в м/с - средняя за 10 мин, порывы в срок и между сроками (в фигурных скобках) и направление, откуда дует ветер: С - северный, СВ - северо-восточный, В - восточный, ЮВ - юго-восточный, Ю - южный, ЮЗ - юго-западный, З - западный, СЗ - северо-западный.
Видимость - горизонтальная дальность видимости в метрах или километрах. При видимости от 1 до 10 км при отсутствии осадков обычно наблюдается дымка, при ухудшении видимости до 1 км и менее - туман. В сухую погоду видимость может ухудшаться дымом, пылью или мглою.
Явления - указаны атмосферные явления, наблюдавшиеся в срок или в последний час перед сроком; фигурными скобками обозначены явления, наблюдавшиеся между сроками (за 1-3 часа до срока); квадратными скобками обозначены град или гололедные отложения с указанием их диаметра в мм.
Облачность - указаны через наклонную черту общая и нижняя облачность в баллах и высота нижней границы облаков в метрах; квадратными скобками обозначены формы облаков: Ci - перистые, Cs - перисто-слоистые, Cc - перисто-кучевые, Ac - высококучевые, As - высокослоистые, Sc - слоисто-кучевые, Ns - слоисто-дождевые, Cu - кучевые, Cb - кучево-дождевые. Подробнее классификацию облаков см. в Атласе облаков (PDF).
T - Температура воздуха - температура, измеренная на высоте 2 м над землей.
Td - Температура точки росы - температура, при понижении до которой содержащийся в воздухе водяной пар достигнет насыщения.
f - Относительная влажность воздуха - влажноcть воздуха, измеренная на высоте 2 м над землей.
Te - Эффективная температура - температура, которую ощущает одетый по сезону человек в тени. Характеристика душности погоды. При расчете учитывается влияние влажности воздуха и скорости ветра на теплоощущения человека.
Tes - Эффективная температура на солнце - температура, которую ощущает человек, с поправкой на солнечный нагрев. Характеристика знойности погоды. Зависит от высоты солнца над горизонтом, облачности и скорости ветра. Ночью, в пасмурную погоду, а также при ветре 12 м/с и более поправка равна нулю.
P - Атмосферное давление - приведенное к уровню моря атмосферное давление.
Po - Атмосферное давление - измеренное на уровне метеостанции атмосферное давление.
Tmin - Минимальная температура - минимум температуры воздуха на высоте 2 м над землей.
Tmax - Максимальная температура - максимум температуры воздуха на высоте 2 м над землей.
R - Количество осадков - Количество выпавших осадков за период времени, мм. При наведении курсора мыши на число - период времени, за который выпало указанное количество осадков.
R24 - Количество осадков - Количество выпавших осадков за 24 часа, мм.
S - Снежный покров - Высота снежного покрова, см. При наведении курсора мыши на число - состояние снежного покрова и степень покрытия местности в баллах.